Location: Newark
(42.7133°N, 87.7910°W)
Time: 08:55:43
(UTC+00:00)

Tiros 1 - Pass Details

Date: 21 September 2019
Orbit: 630 x 664 km, 48.4° (Epoch: 19 October)

Event Time Altitude Azimuth Distance (km) Brightness Sun altitude
Rises 00:06:06 0° 296° (WNW) 2,940 12.1 -3.4°
Reaches altitude 10° 00:08:27 10° 294° (WNW) 2,024 11.2 -3.8°
Maximum altitude 00:13:05 73° 211° (SSW) 664 7.3 -4.6°
Drops below altitude 10° 00:17:40 10° 127° (SE) 2,002 9.2 -5.5°
Enters shadow 00:19:08 - 125° (SE) 2,574 9.7 -5.7°
Sets 00:19:59 0° 125° (SE) 2,905 - -5.9°
